www.pogodaiklimat.ru

Погода и климат >> Архив погоды >> Чили >> Arica


ПОГОДА в Arica

  • Прогноз погоды в Arica
  • Монитор погоды в Arica
  • Климат города

АРХИВ ПОГОДЫ в Arica

Время (UTC), дата Ветер
(напр.,м/с)
 
Видим.   Явления Облачность Т
(С)
Тd
(С)
f
(%)
Тe
(С)
Тes
(С)
Комфортность P
(гПа)
Po
(гПа)
Тmin
(С)
Tmax
(С)
R
(мм)
R24
(мм)
S
(см)
03 13.11 Ю 2 10 км 5/0
[Ac trans]
+18.6 +14.5 77 +20 +20 1014.3 1009.9
06 13.11 Ю 2 10 км 5/0
[Ac trans]
+18.2 +14.4 78 +19 +19 1012.5 1008.1
09 13.11 Ю 2 20 км 5/0
[Ac trans]
+18.3 +14.3 77 +19 +19 1012.2 1007.8
12 13.11 С 2 40 км 10/10 500 м
[Sc]
+18.7 +13.6 72 +20 +20 1013.3 1008.9 +18.1
15 13.11 ЮЗ 5 30 км 3/3 600 м
[Sc]
+21.2 +14.2 64 +24 +30 комфорт 1013.2 1008.8
18 13.11 ЮЗ 5 40 км ясно +20.5 +14.5 68 +23 +35 комфорт 1012.1 1007.7
21 13.11 ЮЗ 4 40 км 8/0
[As trans]
+19.8 +14.5 71 +22 +24 комфорт 1011.4 1007.0
00 14.11 ЮВ 1 30 км 6/0
[Ci fib]
+19.1 +14.2 73 +21 +21 комфорт 1013.5 1009.1 +21.6
03 14.11 Ю 3 10 км 8/0
[]
+18.7 +14.6 77 +20 +20 1014.1 1009.7
06 14.11 Ю 3 30 км 10/10 800 м
[Sc]
+18.5 +14.6 78 +19 +19 1012.8 1008.4
09 14.11 Ю 1 10 км 10/10 800 м
[Sc]
+19.0 +13.9 72 +22 +22 комфорт 1012.6 1008.2
12 14.11 ЮЗ 2 20 км 10/10 750 м
[Sc]
+19.5 +14.2 71 +22 +22 комфорт 1014.3 1009.9 +18.4
15 14.11 ЮЗ 5 30 км 4/4 750 м
[Sc]
+21.2 +15.2 69 +24 +30 комфорт 1013.9 1009.6
18 14.11 ЮЗ 7 30 км 5/0
[Ac trans]
+21.3 +15.9 71 +25 +29 комфорт 1013.2 1008.8
21 14.11 ЮЗ 5 40 км 10/10 750 м
[Sc]
+20.3 +14.7 70 +23 +23 комфорт 1013.2 1008.9
00 15.11 ЮЗ 4 10 км 10/10 700 м
[Sc]
+19.2 +15.3 78 +21 +21 комфорт 1015.5 1011.1 +21.8
03 15.11 ЮЗ 2 20 км 10/10 700 м
[Sc]
+19.1 +15.4 79 +21 +21 комфорт 1016.3 1011.9
06 15.11 З 3 20 км 10/10 900 м
[Sc]
+18.5 +15.6 83 +20 +20 1014.4 1010.0
09 15.11 ЮЗ 3 10 км 10/10 630 м
[Sc]
+18.7 +16.0 84 +20 +20 1014.1 1009.7
12 15.11 ЮЗ 2 20 км 10/10 800 м
[Sc]
+19.0 +15.7 81 +21 +21 комфорт 1015.6 1011.2 +18.4
15 15.11 ЮЗ 6 30 км 10/10 800 м
[Sc]
+19.9 +15.8 77 +22 +22 комфорт 1015.7 1011.3
18 15.11 ЮЗ 5 30 км 8/8 900 м
[Sc]
+20.7 +15.1 70 +24 +26 комфорт 1014.7 1010.3
21 15.11 ЮЗ 4 40 км 10/10 1500 м
[Sc]
+20.3 +14.5 69 +23 +23 комфорт 1014.0 1009.6
00 16.11 Ю 2 40 км 10/10 600 м
[Sc]
+19.0 +13.9 72 +21 +21 комфорт 1016.0 1011.6 +21.6
03 16.11 ЮЗ 1 20 км 10/10 1000 м
[Sc]
+18.4 +13.5 73 +20 +20 1017.2 1012.8
06 16.11 С 2 20 км 10/10 1000 м
[Sc]
+18.1 +13.9 76 +19 +19 1015.5 1011.1
09 16.11 штиль 0 10 км 10/10 900 м
[Sc]
+18.2 +14.0 76 +18 +18 1014.6 1010.2
12 16.11 С 3 30 км 8/8 750 м
[Sc]
+19.6 +13.2 67 +22 +22 комфорт 1016.2 1011.8 +17.8
15 16.11 Ю 5 40 км 9/9 660 м
[Sc]
+19.7 +12.1 62 +21 +22 комфорт 1015.5 1011.1
18 16.11 Ю 8 20 км 9/9 1050 м
[Sc]
+20.5 +12.3 59 +22 +23 комфорт 1014.3 1009.9
21 16.11 Ю 5 20 км 5/0
[]
+20.7 +12.0 57 +23 +25 комфорт 1013.3 1008.9
00 17.11 Ю 2 30 км ясно +18.0 +12.3 69 +19 +19 1016.1 1011.7 +21.7
03 17.11 ЮЗ 1 20 км 10/10 1080 м
[Sc]
+18.2 +12.3 68 +20 +20 1017.8 1013.4
06 17.11 З 1 20 км 10/10 1080 м
[Sc]
+18.3 +11.7 65 +20 +20 1017.0 1012.6
09 17.11 З 1 10 км 10/10 1080 м
[Sc]
+18.3 +12.1 67 +20 +20 1016.4 1012.0
12 17.11 З 1 30 км 10/10 1000 м
[Sc]
+19.6 +12.0 61 +22 +22 комфорт 1016.6 1012.2 +18.0
15 17.11 ЮЗ 4 30 км 6/0
[Ac trans]
+21.6 +12.6 57 +24 +32 комфорт 1016.6 1012.2
18 17.11 Ю 7 30 км ясно +21.5 +11.9 54 +24 +29 комфорт 1014.7 1010.4
21 17.11 Ю 6 30 км ясно +20.1 +12.4 61 +22 +24 комфорт 1013.8 1009.4
00 18.11 Ю 2 20 км ясно +17.8 +12.7 72 +18 +18 1015.8 1011.4 +22.6
03 18.11 Ю 1 20 км ясно +16.9 +13.5 80 +18 +18 1017.7 1013.3
06 18.11 С 3 20 км ясно +15.3 +11.3 77 +15 +15 1016.0 1011.5
09 18.11 В 3 20 км ясно +13.5 +8.4 71 +13 +13 1015.1 1010.6
12 18.11 ЮЗ 1 40 км ясно +18.8 +11.5 63 +21 +26 комфорт 1015.6 1011.2 +13.3
15 18.11 ЮЗ 4 30 км ясно +21.1 +11.8 55 +23 +35 комфорт 1015.5 1011.1
18 18.11 ЮЗ 5 30 км ясно +21.0 +11.7 55 +23 +33 комфорт 1014.4 1010.0 0.0
21 18.11 ЮЗ 5 40 км ясно +19.7 +12.3 62 +21 +24 комфорт 1013.9 1009.5
00 19.11 Ю 1 30 км ясно +18.2 +12.3 68 +20 +20 1015.4 1011.0 +21.6
03 19.11 В 2 40 км 4/0
[Ac trans]
+17.3 +9.8 61 +18 +18 1016.2 1011.8
06 19.11 В 3 40 км 4/0
[Ac trans]
+15.6 +9.8 68 +15 +15 1015.1 1010.7
09 19.11 СВ 2 40 км 6/0
[Ac trans]
+14.1 +8.6 69 +14 +14 1013.3 1008.8
12 19.11 0 40 км ясно +19.2 +11.3 60 1014.4 1010.0 +13.8
15 19.11 ЮЗ 6 40 км ясно +21.0 +11.5 55 +23 +31 комфорт 1013.6 1009.2
18 19.11 ЮЗ 5 20 км ясно +21.0 +12.8 59 +23 +34 комфорт 1012.6 1008.2
21 19.11 ЮЗ 5 40 км 5/0
[]
+20.0 +12.8 63 +22 +24 комфорт 1012.3 1007.9

 

Местоположение метеостанции Arica (Чили): широта -18.46 долгота -70.16 высота над уровнем моря 58 м.

В архиве по умолчанию представлена погода в Arica за последнюю неделю. Архивные данные за месяц целиком и за предыдущие месяцы, начиная с января 2011 года, Вы можете получить, выбрав интересующий диапазон дат из раскрывающегося списка и нажав кнопку "Ввод!".

Внимание! Время в таблицах - всемирное. Для получения местного времени необходимо прибавить поправку, которая в Arica равна -4 ч.

Смотрите также архив погоды в соседних городах и на ближайших метеорологических станциях:

Погода в Tacna (Перу) (47 км)
Погода в Ilo (Перу) (151 км)
Погода в Iquique (Чили) (230 км)
Погода в Arequipa (Перу) (280 км)
Погода в La Paz (Боливия) (302 км)
Погода в Ovejuyo (Боливия) (311 км)
Погода в Juliaca (Перу) (331 км)
Погода в Oruro (Боливия) (332 км)
Погода в Cochabamba (Боливия) (437 км)
Погода в Calama (Чили) (464 км)

Пояснения к столбцам:

Ветер - указаны скорость ветра в м/с - средняя за 10 мин, порывы в срок и между сроками (в фигурных скобках) и направление, откуда дует ветер: С - северный, СВ - северо-восточный, В - восточный, ЮВ - юго-восточный, Ю - южный, ЮЗ - юго-западный, З - западный, СЗ - северо-западный.
Видимость - горизонтальная дальность видимости в метрах или километрах. При видимости от 1 до 10 км при отсутствии осадков обычно наблюдается дымка, при ухудшении видимости до 1 км и менее - туман. В сухую погоду видимость может ухудшаться дымом, пылью или мглою.
Явления - указаны атмосферные явления, наблюдавшиеся в срок или в последний час перед сроком; фигурными скобками обозначены явления, наблюдавшиеся между сроками (за 1-3 часа до срока); квадратными скобками обозначены град или гололедные отложения с указанием их диаметра в мм.
Облачность - указаны через наклонную черту общая и нижняя облачность в баллах и высота нижней границы облаков в метрах; квадратными скобками обозначены формы облаков: Ci - перистые, Cs - перисто-слоистые, Cc - перисто-кучевые, Ac - высококучевые, As - высокослоистые, Sc - слоисто-кучевые, Ns - слоисто-дождевые, Cu - кучевые, Cb - кучево-дождевые. Подробнее классификацию облаков см. в Атласе облаков (PDF).
T - Температура воздуха - температура, измеренная на высоте 2 м над землей.
Td - Температура точки росы - температура, при понижении до которой содержащийся в воздухе водяной пар достигнет насыщения.
f - Относительная влажность воздуха - влажноcть воздуха, измеренная на высоте 2 м над землей.
Te - Эффективная температура - температура, которую ощущает одетый по сезону человек в тени. Характеристика душности погоды. При расчете учитывается влияние влажности воздуха и скорости ветра на теплоощущения человека.
Tes - Эффективная температура на солнце - температура, которую ощущает человек, с поправкой на солнечный нагрев. Характеристика знойности погоды. Зависит от высоты солнца над горизонтом, облачности и скорости ветра. Ночью, в пасмурную погоду, а также при ветре 12 м/с и более поправка равна нулю.
P - Атмосферное давление - приведенное к уровню моря атмосферное давление.
Po - Атмосферное давление - измеренное на уровне метеостанции атмосферное давление.
Tmin - Минимальная температура - минимум температуры воздуха на высоте 2 м над землей.
Tmax - Максимальная температура - максимум температуры воздуха на высоте 2 м над землей.
R - Количество осадков - Количество выпавших осадков за период времени, мм. При наведении курсора мыши на число - период времени, за который выпало указанное количество осадков.
R24 - Количество осадков - Количество выпавших осадков за 24 часа, мм.
S - Снежный покров - Высота снежного покрова, см. При наведении курсора мыши на число - состояние снежного покрова и степень покрытия местности в баллах.